Date String (YYYY-MM-DD hh:mm:ss) UTC,Instrument flags,Ambient pressure (hPa),Sample flow (lpm),Bypass flow (lpm),Sample temperature (°C),Ambient temperature (°C),ASC tube jacket temperature (°C),LED temperature (°C),Box temperature (°C),Sample RH (%),Span deviation,Mass concentration (μg/m³),Mass concentration (μg/m³),Mass concentration (μg/m³)
DateTimeUTC,F1_M11,P_M11,Q1_M11,Q2_M11,T1_M11,T2_M11,T3_M11,T4_M11,T5_M11,U1_M11,ZSPAN_M11,X0_M11,X2_M11,X1_M11
2021-11-20 20:00:00,,0825.9,5.00,0.00,26.6,25.7,00.0,35.7,28.3,11.5,0000.0,0012.18,0003.97,0003.17
2021-11-20 20:01:00,,0826.0,5.00,0.00,26.6,25.7,00.0,35.7,28.3,11.5,0000.0,0011.55,0003.89,0003.10
2021-11-20 20:02:00,,0826.0,5.00,0.00,26.6,25.7,00.0,35.7,28.3,11.6,0000.0,0010.85,0003.80,0002.97
2021-11-20 20:03:00,,0826.1,4.99,0.00,26.6,25.7,00.0,35.7,28.3,11.6,0000.0,0010.24,0003.73,0002.84
2021-11-20 20:04:00,,0826.2,5.01,0.00,26.5,25.7,00.0,35.7,28.3,11.7,0000.0,0010.43,0003.66,0002.70
2021-11-20 20:05:00,,0826.2,5.00,0.00,26.5,25.6,00.0,35.7,28.2,11.7,0000.0,0010.39,0003.61,0002.56
2021-11-20 20:06:00,,0826.2,5.00,0.00,26.5,25.6,00.0,35.6,28.2,11.7,0000.0,0010.80,0003.49,0002.42
2021-11-20 20:07:00,,0826.2,4.99,0.00,26.5,25.5,00.0,35.6,28.2,11.8,0000.0,0010.58,0003.39,0002.27
2021-11-20 20:08:00,,0826.1,5.00,0.00,26.5,25.5,00.0,35.6,28.1,11.8,0000.0,0009.85,0003.34,0002.16
2021-11-20 20:09:00,,0826.1,5.01,0.00,26.4,25.4,00.0,35.6,28.1,11.9,0000.0,0010.02,0003.28,0002.07
2021-11-20 20:10:00,,0826.0,4.99,0.00,26.4,25.4,00.0,35.6,28.1,11.9,0000.0,0010.24,0003.25,0001.99
2021-11-20 20:11:00,,0826.0,4.99,0.00,26.4,25.3,00.0,35.6,28.1,11.9,0000.0,0010.45,0003.26,0001.93
2021-11-20 20:12:00,,0826.0,5.01,0.00,26.4,25.3,00.0,35.5,28.1,11.9,0000.0,0010.14,0003.25,0001.89
2021-11-20 20:13:00,,0826.1,4.99,0.00,26.4,25.3,00.0,35.5,28.1,11.9,0000.0,0010.24,0003.21,0001.86
2021-11-20 20:14:00,,0826.2,4.99,0.00,26.3,25.3,00.0,35.5,28.1,11.9,0000.0,0010.23,0003.18,0001.82
2021-11-20 20:15:00,,0826.2,5.01,0.00,26.3,25.3,00.0,35.5,28.0,11.9,0000.0,0009.88,0003.14,0001.80
2021-11-20 20:16:00,,0826.2,5.01,0.00,26.3,25.3,00.0,35.5,28.0,12.0,0000.0,0009.78,0003.10,0001.78
2021-11-20 20:17:00,,0826.1,4.98,0.00,26.3,25.2,00.0,35.5,28.0,12.0,0000.0,0009.48,0003.11,0001.78
2021-11-20 20:18:00,,0826.2,5.01,0.00,26.3,25.2,00.0,35.4,27.9,12.0,0000.0,0009.49,0003.13,0001.79
2021-11-20 20:19:00,,0826.1,4.99,0.00,26.2,25.2,00.0,35.4,27.9,12.0,0000.0,0010.03,0003.11,0001.79
2021-11-20 20:20:00,,0826.2,5.02,0.00,26.2,25.2,00.0,35.4,27.9,12.0,0000.0,0009.83,0003.11,0001.79
2021-11-20 20:21:00,,0826.2,4.99,0.00,26.2,25.1,00.0,35.4,27.9,12.1,0000.0,0009.64,0003.07,0001.80
2021-11-20 20:22:00,,0826.2,5.00,0.00,26.2,25.2,00.0,35.4,27.9,12.1,0000.0,0009.94,0003.07,0001.80
2021-11-20 20:23:00,,0826.2,5.00,0.00,26.2,25.2,00.0,35.4,27.9,12.1,0000.0,0010.45,0003.05,0001.83
2021-11-20 20:24:00,,0826.1,5.01,0.00,26.2,25.3,00.0,35.3,27.9,12.0,0000.0,0011.89,0003.16,0001.89
2021-11-20 20:25:00,,0826.2,5.00,0.00,26.2,25.3,00.0,35.3,27.9,11.8,0000.0,0012.44,0003.24,0002.00
2021-11-20 20:26:00,,0826.2,5.01,0.00,26.2,25.3,00.0,35.3,27.9,11.7,0000.0,0013.16,0003.36,0002.13
2021-11-20 20:27:00,,0826.2,4.99,0.00,26.1,25.3,00.0,35.3,27.9,11.6,0000.0,0014.96,0003.57,0002.29
2021-11-20 20:28:00,,0826.2,4.99,0.00,26.1,25.3,00.0,35.3,27.9,11.6,0000.0,0016.68,0003.73,0002.42
2021-11-20 20:29:00,,0826.2,5.01,0.00,26.1,25.2,00.0,35.3,27.8,11.6,0000.0,0017.21,0003.85,0002.55
2021-11-20 20:30:00,,0826.2,4.99,0.00,26.1,25.2,00.0,35.2,27.8,11.6,0000.0,0017.34,0004.00,0002.68
2021-11-20 20:31:00,,0826.2,5.00,0.00,26.1,25.1,00.0,35.2,27.8,11.7,0000.0,0018.18,0004.13,0002.82
2021-11-20 20:32:00,,0826.2,5.01,0.00,26.0,25.1,00.0,35.2,27.7,11.7,0000.0,0018.25,0004.25,0002.96
2021-11-20 20:33:00,,0826.2,4.99,0.00,26.0,25.1,00.0,35.2,27.7,11.7,0000.0,0018.43,0004.38,0003.10
2021-11-20 20:34:00,,0826.2,5.01,0.00,26.0,25.1,00.0,35.2,27.8,11.8,0000.0,0018.73,0004.50,0003.17
2021-11-20 20:35:00,,0826.2,5.00,0.00,26.0,25.2,00.0,35.2,27.8,11.8,0000.0,0018.28,0004.57,0003.23
2021-11-20 20:36:00,,0826.2,4.99,0.00,26.0,25.2,00.0,35.1,27.8,11.8,0000.0,0018.26,0004.60,0003.25
2021-11-20 20:37:00,,0826.2,5.00,0.00,26.0,25.1,00.0,35.1,27.7,11.8,0000.0,0017.74,0004.58,0003.25
2021-11-20 20:38:00,,0826.2,4.99,0.00,26.0,25.1,00.0,35.1,27.7,11.8,0000.0,0016.49,0004.53,0003.26
2021-11-20 20:39:00,,0826.3,5.01,0.00,26.0,25.2,00.0,35.1,27.7,11.8,0000.0,0014.97,0004.52,0003.26
2021-11-20 20:40:00,,0826.3,4.98,0.00,26.0,25.2,00.0,35.1,27.7,11.7,0000.0,0015.11,0004.53,0003.28
2021-11-20 20:41:00,,0826.4,5.01,0.00,26.0,25.2,00.0,35.1,27.7,11.7,0000.0,0015.45,0004.55,0003.30
2021-11-20 20:42:00,,0826.5,5.00,0.00,26.0,25.2,00.0,35.1,27.7,11.7,0000.0,0015.00,0004.58,0003.33
2021-11-20 20:43:00,,0826.5,5.00,0.00,26.0,25.2,00.0,35.1,27.8,11.7,0000.0,0015.64,0004.60,0003.35
2021-11-20 20:44:00,,0826.5,4.99,0.00,26.0,25.3,00.0,35.1,27.8,11.7,0000.0,0015.94,0004.59,0003.37
2021-11-20 20:45:00,,0826.5,5.00,0.00,26.0,25.3,00.0,35.1,27.8,11.7,0000.0,0015.32,0004.60,0003.40
2021-11-20 20:46:00,,0826.5,5.00,0.00,26.0,25.3,00.0,35.1,27.8,11.7,0000.0,0015.29,0004.63,0003.40
2021-11-20 20:47:00,,0826.5,5.00,0.00,26.0,25.3,00.0,35.1,27.8,11.7,0000.0,0014.83,0004.58,0003.40
2021-11-20 20:48:00,,0826.6,4.99,0.00,26.0,25.3,00.0,35.1,27.8,11.8,0000.0,0015.01,0004.60,0003.41
2021-11-20 20:49:00,,0826.7,5.01,0.00,26.0,25.3,00.0,35.1,27.8,11.8,0000.0,0014.81,0004.55,0003.39
2021-11-20 20:50:00,,0826.6,5.00,0.00,26.0,25.4,00.0,35.1,27.8,11.8,0000.0,0014.92,0004.51,0003.39
2021-11-20 20:51:00,,0826.7,5.01,0.00,26.0,25.4,00.0,35.1,27.8,11.8,0000.0,0014.44,0004.44,0003.36
2021-11-20 20:52:00,,0826.7,4.99,0.00,26.0,25.3,00.0,35.0,27.8,11.8,0000.0,0014.14,0004.43,0003.34
2021-11-20 20:53:00,,0826.7,5.01,0.00,26.0,25.4,00.0,35.0,27.8,11.8,0000.0,0014.03,0004.44,0003.32
2021-11-20 20:54:00,,0826.7,4.99,0.00,26.0,25.4,00.0,35.0,27.8,11.8,0000.0,0013.93,0004.46,0003.31
2021-11-20 20:55:00,,0826.7,5.00,0.00,26.0,25.4,00.0,35.0,27.8,11.8,0000.0,0013.76,0004.47,0003.28
2021-11-20 20:56:00,,0826.8,4.98,0.00,26.0,25.4,00.0,35.1,27.8,11.8,0000.0,0014.39,0004.45,0003.26
2021-11-20 20:57:00,,0826.8,5.01,0.00,26.0,25.4,00.0,35.1,27.8,11.8,0000.0,0015.90,0004.46,0003.26
2021-11-20 20:58:00,,0826.8,5.00,0.00,26.0,25.4,00.0,35.1,27.9,11.8,0000.0,0015.72,0004.49,0003.28
2021-11-20 20:59:00,,0826.8,4.99,0.00,26.0,25.4,00.0,35.1,27.9,11.8,0000.0,0015.49,0004.52,0003.29
